EDT,Max TemperatureF,Mean TemperatureF,Min TemperatureF,Max Dew PointF,MeanDew PointF,Min DewpointF,Max Humidity, Mean Humidity, Min Humidity, Max Sea Level PressureIn, Mean Sea Level PressureIn, Min Sea Level PressureIn, Max VisibilityMiles, Mean VisibilityMiles, Min VisibilityMiles, Max Wind SpeedMPH, Mean Wind SpeedMPH, Max Gust SpeedMPH,PrecipitationIn, CloudCover, Events, WindDirDegrees
2012-8-1,81,67,53,67,59,49,94,70,45,29.98,29.93,29.83,10,10,10,16,4,21,0.00,0,,229
2012-8-2,81,74,68,71,68,62,94,79,61,29.94,29.84,29.77,10,10,3,18,8,23,0.00,2,Rain,230
2012-8-3,83,74,66,69,65,63,89,74,59,30.01,29.98,29.93,10,10,4,13,6,21,0.00,2,,78
2012-8-4,90,80,69,72,67,62,93,71,45,30.00,29.90,29.82,10,10,5,15,8,21,0.00,1,Rain,183
2012-8-5,74,66,57,72,57,46,91,62,38,30.13,29.95,29.80,10,10,7,21,12,31,0.00,4,,291
2012-8-6,77,66,56,62,55,50,84,63,39,30.14,30.08,29.96,10,10,10,21,6,29,0.00,0,,216
2012-8-7,80,74,68,66,63,56,84,69,48,30.03,29.95,29.90,10,10,10,16,9,22,0.00,1,,265
2012-8-8,73,66,58,61,58,53,94,68,51,30.07,30.04,30.02,10,10,10,10,6,16,0.00,2,,344
2012-8-9,72,66,61,62,57,49,94,70,47,30.05,30.02,29.99,10,10,7,14,5,18,0.00,5,Rain,88
2012-8-10,71,66,62,57,52,49,75,59,45,29.99,29.95,29.91,10,10,10,22,12,31,0.00,3,Rain,25
2012-8-11,76,70,64,59,56,52,72,63,46,29.99,29.92,29.89,10,10,10,16,12,29,0.00,4,,357
2012-8-12,76,69,62,62,58,55,84,68,48,30.01,29.99,29.97,10,10,10,15,8,20,0.00,1,,276
2012-8-13,76,68,61,62,58,48,94,75,38,30.00,29.97,29.95,10,10,10,10,4,,0.00,2,Rain,205
2012-8-14,77,68,59,64,61,58,96,81,51,29.96,29.93,29.90,10,10,5,13,4,,0.00,2,,236
2012-8-15,77,68,59,65,57,44,99,69,31,29.98,29.94,29.91,10,9,2,7,3,,0.00,2,Rain,341
2012-8-16,72,68,63,68,62,54,95,82,70,29.91,29.77,29.68,10,9,2,20,7,29,0.00,6,Rain,202
2012-8-17,68,64,60,57,47,36,82,57,31,30.01,29.92,29.80,10,10,7,23,16,31,0.00,4,Rain,304
2012-8-18,72,64,55,57,51,45,80,60,39,30.02,29.98,29.94,10,10,10,17,8,23,0.00,1,Rain,244
2012-8-19,68,62,55,57,48,42,87,58,38,30.01,29.98,29.96,10,10,10,12,6,17,0.00,2,,345
2012-8-20,72,60,48,57,51,41,92,70,46,30.00,29.98,29.95,10,10,10,18,5,24,0.00,2,,243
2012-8-21,75,64,53,60,56,52,96,74,44,30.07,30.05,29.99,10,10,10,13,4,,0.00,0,,256
2012-8-22,80,70,59,62,54,47,91,60,32,30.09,30.06,30.04,10,10,2,17,7,28,0.00,0,,215
2012-8-23,86,72,59,65,58,51,78,61,34,30.10,30.07,30.04,10,10,10,13,6,20,0.00,1,,131
2012-8-24,83,76,69,65,61,57,75,60,45,30.07,30.03,30.00,10,10,10,14,7,20,0.00,2,Rain,173
2012-8-25,91,81,71,65,61,56,75,55,29,30.08,30.06,30.02,10,10,7,10,7,16,0.00,0,,186
2012-8-26,87,78,70,68,64,57,91,71,35,30.07,30.04,29.99,10,10,7,20,5,25,0.00,3,,182
2012-8-27,78,73,67,69,63,55,97,74,48,30.10,30.03,29.99,10,8,2,13,6,16,0.00,4,,282
2012-8-28,72,64,55,61,56,51,90,69,49,30.19,30.14,30.10,10,10,10,12,7,18,0.00,1,,338
2012-8-29,79,66,52,62,55,51,95,72,43,30.14,30.10,30.00,10,10,10,15,3,16,0.00,1,,209
2012-8-30,89,78,67,63,59,57,78,54,35,30.01,29.93,29.82,10,10,10,24,10,34,0.00,0,,203
2012-8-31,80,74,67,68,61,54,87,62,41,30.15,30.01,29.86,10,10,10,23,11,33,0.00,0,,290